Theta_e
310 310 310 309 309 310 308 308 308 307 309 310 310 310 310 312 313 314 311 310 308 307 309 311 311 313 314 315 318 321 325 325 322 324 326 325 324 322 320 320 321 321 319 320 324 324 322 324 329 330 331 331 332 333 334 334 334 334 333 333 333 333 333 332 332 331 331 332 333 332 332 332 333 333 333 334 334 334 334 334 335 335 335 335 336
308 308 308 306 306 306 306 306 305 305 306 307 308 308 308 309 311 308 306 307 305 305 306 306 307 309 311 313 316 318 323 319 317 318 326 324 323 314 310 312 317 316 315 316 318 319 319 322 326 328 329 331 330 329 329 329 329 329 329 329 329 329 329 328 328 328 328 329 329 330 330 330 330 330 331 332 333 333 334 334 334 334 334 334 334
305 305 304 303 302 302 302 303 303 303 303 304 306 306 306 307 307 305 302 304 303 303 304 303 304 305 308 310 314 317 320 315 313 315 320 323 319 312 302 308 310 313 312 313 316 316 317 320 323 326 328 327 327 327 326 326 327 327 327 326 326 326 326 325 325 325 325 325 326 326 327 328 328 328 329 329 330 331 331 332 332 333 333 334 334
303 303 302 302 302 302 302 302 301 302 302 302 304 305 304 303 304 306 302 302 302 301 303 302 303 304 306 307 312 315 310 309 310 313 307 303 304 300 297 300 306 309 310 310 312 313 315 317 321 323 325 325 325 324 324 324 324 324 324 324 324 324 324 323 322 322 322 322 323 323 324 324 325 325 326 327 327 328 329 329 330 330 331 331 332
302 302 302 301 301 300 300 301 301 301 301 302 302 302 302 301 301 302 300 300 300 300 302 301 302 303 305 305 311 309 304 303 308 307 301 301 301 297 295 297 297 305 306 305 307 309 312 315 318 321 323 322 323 322 322 322 321 320 320 321 321 321 321 321 320 319 319 320 320 320 321 321 322 322 323 324 325 325 326 327 327 328 328 329 329
302 301 301 300 300 299 299 300 300 300 300 300 300 300 300 299 299 299 299 298 299 299 300 300 301 302 304 304 308 305 300 300 306 303 300 300 298 294 294 295 296 298 296 301 303 306 309 312 315 318 320 320 321 320 320 319 319 319 319 320 320 320 320 318 317 316 316 317 317 318 318 319 319 320 320 321 321 322 323 325 325 326 326 327 327
301 301 300 299 298 298 298 298 299 299 299 299 299 298 299 298 298 297 296 296 298 298 298 298 299 301 303 304 305 301 299 301 305 300 299 299 296 293 293 294 296 296 294 293 300 303 305 309 312 315 317 317 317 317 314 314 315 315 317 318 318 318 317 317 316 314 314 314 315 315 315 316 317 317 318 319 319 319 320 321 322 323 324 325 325
299 299 298 298 297 296 296 297 298 298 298 297 297 297 298 298 297 296 294 295 296 295 294 294 296 300 302 303 303 298 299 301 302 298 297 298 294 292 292 293 295 294 295 293 294 298 303 306 309 312 313 313 312 313 311 312 313 314 315 317 317 317 316 315 314 314 314 314 314 314 314 313 314 314 315 315 316 317 318 318 319 320 321 322 323
298 297 296 296 296 295 295 295 296 296 295 295 295 296 296 298 295 296 295 293 293 292 291 292 293 297 300 302 299 297 298 300 299 298 298 296 294 292 292 293 295 296 292 292 293 293 299 303 306 308 308 308 307 308 308 309 311 312 313 315 314 315 315 314 314 312 313 312 312 313 313 313 313 313 313 314 314 314 315 315 316 318 318 319 320
297 296 295 295 294 294 294 294 294 294 294 293 293 294 295 295 294 295 295 292 291 290 290 291 293 296 297 301 295 296 297 299 298 298 295 295 294 292 291 291 293 292 292 292 292 293 294 298 302 304 302 303 305 305 306 306 308 311 311 312 314 314 313 313 312 312 311 311 311 311 312 312 312 312 312 313 313 313 314 313 314 315 316 317 318
295 295 293 293 293 293 293 293 293 293 292 292 292 293 293 294 294 294 296 293 291 290 289 290 292 295 298 300 295 295 297 298 297 296 295 294 294 293 292 290 292 292 291 291 291 291 292 294 295 294 292 298 302 302 301 301 302 307 308 311 312 312 312 311 311 310 310 310 310 310 310 310 310 311 311 311 312 312 313 313 314 314 314 314 315
294 294 293 292 292 292 292 293 292 292 291 290 291 291 292 292 293 294 294 293 291 290 290 289 291 292 295 297 294 294 295 296 295 295 294 294 293 292 290 290 291 291 291 291 291 291 292 293 294 291 290 292 298 300 299 299 300 303 307 307 310 311 312 311 311 310 309 309 309 309 309 309 309 310 310 310 311 311 311 312 312 313 313 313 314
293 293 292 292 292 291 291 292 292 291 291 290 291 291 292 292 292 294 293 291 289 289 289 290 289 289 292 294 293 294 294 293 293 293 293 293 292 291 290 290 290 291 290 291 290 290 292 291 291 290 289 289 290 298 297 297 297 300 303 305 307 310 310 310 310 309 308 308 308 308 308 308 309 309 309 309 309 310 310 310 311 311 312 312 313
292 291 291 291 290 290 290 290 291 291 290 291 291 292 291 291 291 291 293 291 288 289 289 289 287 286 287 289 293 292 292 291 291 292 293 292 292 291 289 289 290 290 290 290 289 290 291 290 289 290 289 289 289 292 291 291 293 297 299 300 303 306 308 307 308 308 308 307 307 307 307 307 308 308 308 308 309 309 309 309 309 310 311 311 312
290 291 291 290 290 289 289 289 289 291 288 288 289 288 289 289 289 289 289 291 289 290 289 289 285 286 289 289 289 290 294 288 289 291 291 291 291 290 290 289 289 290 290 289 288 288 291 289 289 290 289 289 289 291 290 291 292 295 297 298 300 303 305 306 307 308 307 307 306 306 306 307 307 307 307 307 308 308 308 309 309 309 310 310 311
290 290 290 289 288 288 288 288 288 289 288 287 287 287 287 287 288 288 288 287 287 287 289 289 288 286 283 285 286 287 283 283 285 288 289 290 290 289 289 288 288 289 289 288 288 288 289 289 289 290 289 288 289 291 289 288 291 293 294 295 297 300 302 304 306 307 306 305 305 305 306 306 306 306 306 307 307 307 308 308 308 309 309 309 310
288 288 289 287 288 288 287 287 287 287 287 286 286 286 286 287 287 287 286 285 285 285 287 288 287 289 286 284 283 282 281 283 285 286 288 288 288 288 289 287 287 289 288 288 287 288 289 288 288 290 288 288 289 289 287 287 286 289 288 294 298 299 301 303 305 306 305 305 305 304 305 305 305 305 305 306 306 306 306 307 307 308 308 308 309
288 288 287 288 286 287 286 286 286 287 287 286 285 286 286 286 286 286 285 285 285 284 284 287 288 288 289 288 286 282 281 283 283 279 286 287 287 288 287 287 287 288 288 287 286 287 289 288 288 289 288 287 288 288 286 285 287 284 286 289 297 298 300 302 303 304 305 304 304 304 304 304 304 304 304 305 305 305 305 306 306 306 307 307 308
286 286 286 286 286 286 286 286 285 286 287 285 284 284 285 285 286 285 285 286 284 283 283 283 284 286 287 287 288 288 287 284 281 282 278 282 285 285 285 286 286 286 287 286 286 286 287 288 287 288 286 286 287 287 285 284 286 288 292 293 296 297 299 301 303 304 305 305 304 304 303 303 303 303 304 304 304 304 305 305 305 305 306 306 306
285 285 285 286 286 285 285 285 285 285 286 284 284 284 285 285 285 285 285 285 284 282 282 283 281 282 286 285 285 285 286 286 284 281 280 278 279 283 284 284 285 286 286 286 286 286 286 286 286 286 284 285 286 285 283 283 283 283 287 292 294 296 298 300 301 303 304 303 303 303 303 302 303 303 303 303 304 304 304 304 304 304 305 305 306
285 285 285 285 285 285 284 283 284 284 285 284 284 284 283 283 283 283 283 283 284 284 282 282 282 282 282 283 283 283 283 284 283 282 279 277 277 279 279 283 283 284 284 285 286 286 286 285 287 284 284 283 284 283 283 282 283 283 288 291 293 294 296 298 300 301 302 302 302 302 302 302 302 302 302 302 303 303 303 303 304 304 304 305 304
284 284 284 284 284 284 283 282 282 284 284 282 283 283 283 283 283 283 283 283 283 283 283 282 282 282 282 282 281 281 282 282 280 280 280 280 277 277 279 278 278 281 284 284 285 285 285 284 285 283 283 282 283 282 283 282 283 285 286 289 290 291 294 297 299 301 302 301 302 302 301 301 302 302 302 302 302 302 303 303 303 303 304 304 304
283 283 283 284 283 284 283 283 283 283 283 282 282 282 282 282 282 282 282 282 282 282 283 283 282 282 281 281 280 281 281 279 278 279 278 277 277 277 278 279 279 279 282 284 285 284 283 284 282 282 282 282 282 283 282 283 285 285 287 287 289 291 293 295 298 300 301 301 301 301 300 301 302 301 301 301 301 301 301 301 302 302 302 302 303
283 282 282 283 283 282 282 282 282 282 281 281 282 282 282 281 281 282 281 282 282 283 281 281 281 281 281 281 281 282 282 280 280 280 278 277 277 276 277 279 279 280 282 282 284 282 283 283 282 282 282 282 282 283 282 283 283 286 284 286 288 289 291 292 296 299 300 300 301 300 300 301 301 302 301 301 301 301 300 300 301 301 301 302 301
281 281 281 281 282 281 281 281 281 282 282 281 281 282 281 281 281 281 281 281 281 281 281 281 281 280 279 281 281 281 281 281 281 280 280 279 278 277 278 279 277 278 280 281 279 282 282 281 282 281 281 281 282 282 282 282 282 284 285 285 287 287 289 291 293 296 298 300 300 300 300 300 301 301 300 300 299 299 298 299 299 299 299 299 299
280 280 281 282 281 281 281 281 281 281 281 281 282 282 282 282 281 281 281 281 281 281 281 281 281 281 281 279 280 280 280 281 280 280 279 278 277 277 277 278 278 277 279 278 279 278 280 282 281 281 281 281 280 281 281 281 281 284 285 283 283 286 288 290 291 293 297 298 299 299 299 300 300 300 299 299 298 296 297 297 297 298 297 297 297
280 280 281 281 281 281 281 280 281 280 280 280 281 281 281 281 281 281 281 281 281 282 280 280 281 280 280 280 281 280 280 280 280 279 280 279 279 278 277 275 275 276 276 277 277 277 278 279 281 280 280 280 280 280 281 281 282 283 284 281 280 284 286 287 288 291 294 296 297 298 298 299 299 299 299 298 298 299 297 297 296 298 297 295 296
280 280 280 280 280 280 280 280 280 280 280 280 280 280 280 280 280 280 279 283 281 281 280 280 280 280 280 280 279 279 280 280 280 279 279 280 280 279 279 277 274 272 274 274 275 275 279 277 278 280 278 279 279 280 281 281 280 283 283 280 280 281 284 285 288 289 290 292 294 296 297 297 298 298 298 298 298 298 298 297 294 295 297 297 296
281 281 280 280 280 280 279 279 279 279 279 279 279 279 279 279 279 279 279 280 281 280 280 279 279 279 279 279 279 279 279 279 279 280 280 279 279 279 279 277 276 273 271 271 273 273 275 277 275 277 279 278 278 280 279 279 281 281 280 280 279 279 282 285 287 287 288 289 291 293 295 296 296 297 298 298 298 298 296 297 297 296 295 297 297
281 281 280 279 279 280 279 278 278 279 278 278 278 278 279 279 279 279 280 280 279 280 280 279 279 279 280 278 279 278 279 278 278 279 279 278 278 278 278 278 277 274 273 271 271 275 274 276 277 275 277 277 278 278 279 278 281 280 279 279 279 279 283 284 284 286 288 288 288 290 292 294 295 295 296 297 297 297 297 297 298 298 296 295 297
279 279 279 278 278 278 278 278 278 278 278 278 278 278 278 278 279 278 279 279 278 278 279 279 279 279 278 277 278 278 278 278 278 278 278 278 277 277 277 277 277 276 274 273 271 274 277 273 276 277 276 277 278 277 278 278 280 280 279 278 278 281 283 281 282 283 285 286 286 287 288 291 293 294 295 296 296 296 296 295 295 296 297 297 294
278 278 278 278 278 277 277 277 277 277 277 277 277 277 277 277 277 278 278 278 277 277 277 278 280 278 277 276 277 277 277 277 277 277 277 277 277 276 276 276 276 276 275 274 272 272 276 275 275 276 277 276 277 276 276 277 279 281 278 278 279 281 279 278 281 282 282 284 284 285 286 287 289 291 292 293 294 294 294 294 294 293 293 291 290
278 277 277 277 277 277 277 277 276 276 276 275 276 276 276 276 277 277 277 277 277 276 277 276 277 277 277 276 276 277 277 276 276 276 276 276 276 276 276 276 275 275 275 274 272 272 274 276 275 275 276 276 274 276 275 275 276 277 280 278 278 277 277 277 277 280 281 283 283 284 285 285 286 287 288 288 290 290 291 291 290 289 288 287 288
277 277 277 277 276 276 276 275 275 275 275 275 275 275 275 275 275 278 277 276 276 276 276 275 275 277 276 275 275 275 276 275 276 275 275 275 275 274 274 275 274 275 276 274 273 272 271 274 274 275 275 275 273 275 274 274 275 277 276 277 277 277 276 276 276 277 280 282 282 283 284 284 284 284 284 285 286 286 286 286 285 286 286 286 287
277 276 276 275 276 275 275 275 275 274 274 274 274 275 275 275 275 275 277 275 275 275 275 275 275 275 274 275 274 275 277 275 275 274 275 274 275 274 274 274 274 274 275 275 273 271 271 271 274 273 273 274 273 273 275 275 276 276 275 276 276 276 277 276 276 276 279 281 282 283 283 283 283 283 283 283 284 284 284 284 284 285 285 285 285
275 275 275 275 275 275 275 274 274 273 274 274 274 274 275 275 274 275 275 275 275 274 274 274 274 274 274 274 274 274 275 274 274 273 274 274 273 273 273 274 274 273 274 274 274 272 271 270 271 272 273 272 273 274 275 276 275 275 275 275 275 275 275 276 275 275 277 280 281 281 281 281 281 282 282 282 282 283 283 283 283 283 283 284 284
274 274 275 274 274 274 274 273 273 273 273 273 273 274 275 275 274 275 274 274 274 274 274 274 275 274 274 274 274 274 274 273 273 273 273 272 273 273 273 273 273 274 274 274 273 272 271 270 270 272 273 273 274 274 275 274 274 274 274 274 274 274 274 275 275 275 278 279 279 279 279 280 280 280 281 281 281 281 281 281 281 281 281 282 282
274 274 274 274 274 273 273 273 273 272 273 273 273 274 274 275 275 275 275 274 274 274 274 274 274 274 274 274 274 274 273 273 273 273 273 272 273 272 272 273 273 273 272 272 272 272 271 271 271 271 272 272 272 273 274 274 273 272 272 273 274 274 273 272 273 274 274 273 273 273 275 276 277 279 280 280 280 280 280 279 279 279 279 280 281
274 273 273 273 273 272 273 273 273 273 273 273 274 274 274 275 275 275 274 274 274 274 274 274 274 274 274 274 274 274 273 273 273 272 272 272 273 273 273 273 273 272 272 272 272 272 271 271 271 272 272 273 274 272 273 274 273 273 271 271 271 272 272 272 271 272 273 272 274 276 275 275 277 275 277 278 278 278 278 278 278 278 278 279 280
273 273 273 273 273 273 273 273 273 273 273 273 274 274 275 275 275 275 274 274 274 274 274 274 274 274 274 274 274 274 274 273 273 273 273 273 274 274 274 274 274 273 272 272 272 272 271 271 271 271 272 272 272 273 273 272 271 272 273 271 269 269 270 271 271 270 271 271 270 271 273 273 273 274 276 276 276 276 277 277 276 277 277 279 279
274 273 273 273 273 273 273 273 272 273 274 274 274 274 274 275 275 275 275 274 273 273 273 273 274 273 274 274 274 274 275 276 277 276 276 276 274 273 273 274 273 273 272 272 272 271 271 271 270 272 271 271 271 271 270 270 270 270 271 271 270 270 270 270 270 271 271 270 269 270 270 270 269 269 269 269 270 272 272 275 275 276 277 278 279
272 272 272 272 272 272 272 272 271 273 273 273 275 276 276 275 274 275 275 275 274 273 273 273 273 273 273 273 275 276 276 276 276 276 276 277 277 276 274 273 273 272 272 271 271 271 271 270 270 270 269 269 269 270 270 270 271 272 270 270 269 269 269 268 269 270 271 269 269 267 268 270 268 268 268 268 269 270 270 270 270 273 275 278 279
272 272 271 271 271 271 271 270 271 272 272 273 275 276 276 277 275 275 274 274 274 273 273 272 272 273 273 273 272 274 275 275 274 276 276 276 276 276 277 276 276 274 272 271 271 272 271 270 270 270 269 269 269 271 270 270 271 270 269 269 268 268 267 266 264 267 271 269 267 266 265 268 268 266 267 267 268 269 269 270 275 276 277 277 278
271 271 271 271 271 271 271 270 270 271 271 275 275 275 276 276 276 275 274 274 274 273 273 272 272 272 272 272 272 274 273 273 273 273 274 275 275 275 276 276 276 276 276 274 272 271 271 269 269 269 269 269 269 270 270 269 268 268 268 268 267 266 265 265 265 264 267 269 265 264 264 267 267 266 266 267 268 268 269 272 275 276 276 276 277
271 271 270 271 270 270 270 270 270 270 270 275 275 275 276 276 276 275 274 274 273 272 272 272 271 271 271 272 271 272 273 274 274 271 271 271 274 275 275 275 275 276 276 276 276 273 272 270 270 269 270 269 269 269 270 269 269 267 267 266 266 266 265 264 264 264 265 267 265 263 263 265 266 265 264 266 267 267 267 271 274 275 276 275 276
271 271 270 270 270 270 270 270 270 270 270 274 275 275 275 276 276 276 274 273 272 272 272 272 272 271 271 271 270 271 271 271 271 271 271 272 272 273 273 273 272 273 274 275 275 274 274 271 270 269 270 271 268 269 270 270 268 266 265 265 265 264 263 263 264 264 265 266 264 263 261 263 265 264 263 265 266 266 266 270 274 273 274 274 274
271 271 270 270 270 270 270 270 269 269 270 275 275 275 275 275 276 276 273 273 272 271 272 272 271 271 271 271 271 270 270 270 271 272 272 273 273 273 272 272 272 271 270 270 270 271 271 271 270 270 270 270 269 269 269 269 268 267 266 265 264 264 264 264 264 264 264 265 265 263 259 262 264 262 262 263 265 265 266 269 272 273 273 273 274
271 271 270 270 270 270 270 269 269 268 270 275 274 274 274 275 275 273 272 271 271 271 271 271 271 271 271 271 270 270 270 270 272 274 275 274 273 272 271 270 269 269 269 271 273 273 272 271 270 270 270 270 272 269 270 268 266 266 266 266 264 263 261 259 259 261 261 264 264 262 260 260 263 261 261 263 264 263 264 264 269 271 272 272 273
271 271 270 270 270 270 269 269 268 268 269 274 274 274 274 274 274 271 270 270 270 270 270 270 270 271 271 271 270 270 270 271 273 275 275 275 272 270 269 268 267 267 267 268 271 272 273 273 273 272 272 272 271 271 271 271 268 267 264 261 259 260 258 256 257 259 259 261 262 262 260 258 261 261 260 261 262 262 262 263 264 269 270 271 271
271 271 270 270 270 269 269 269 269 268 268 272 274 274 274 274 273 270 269 269 269 269 269 270 270 270 270 272 272 271 271 271 274 275 275 274 271 270 267 266 265 264 265 267 268 269 270 269 268 268 268 268 268 268 268 268 269 268 262 257 259 260 257 257 256 257 258 259 260 262 258 258 259 260 259 260 260 260 261 261 262 264 268 268 269
271 271 270 269 269 269 269 269 271 269 268 270 274 273 273 273 273 270 270 268 268 268 268 268 270 270 270 271 272 272 272 273 274 275 275 273 270 269 266 264 264 263 265 267 267 264 262 261 261 261 261 263 262 261 262 266 267 265 262 261 260 259 256 256 256 255 254 255 259 261 257 257 258 258 258 256 254 257 260 260 261 261 261 262 262
Wind_Speed
6 5 5 5 5 5 5 5 6 6 6 6 6 6 6 6 6 6 7 7 6 7 7 6 6 6 6 6 6 5 5 7 6 7 7 7 8 13 18 18 19 20 22 23 22 23 22 22 21 19 19 20 21 22 23 24 25 24 24 24 24 24 25 25 25 25 25 25 25 24 24 23 23 22 22 22 22 21 21 21 21 21 21 21 20
5 5 5 6 6 6 6 6 6 6 6 7 6 6 6 6 6 6 8 6 7 7 7 6 7 6 6 6 5 6 6 7 7 6 6 8 8 11 20 19 19 21 22 23 23 23 23 22 22 20 20 21 23 23 23 23 24 24 24 25 25 26 26 26 26 26 25 25 25 25 24 24 24 24 24 23 23 23 22 23 22 21 21 21 21
6 6 6 6 6 6 6 6 6 7 6 6 6 6 7 7 7 6 7 7 7 7 7 6 7 7 6 6 4 7 7 7 7 7 8 6 6 9 13 18 18 17 23 23 23 23 23 22 23 20 21 22 23 23 24 24 24 25 25 25 25 25 25 26 26 26 26 25 25 25 24 24 24 24 24 24 24 25 24 23 22 21 21 21 21
7 6 6 6 6 6 6 7 7 6 7 6 7 7 7 7 8 7 7 6 6 7 7 6 7 7 6 7 6 7 7 7 7 9 9 8 10 10 10 11 15 16 19 22 23 23 22 22 23 20 21 23 23 24 24 24 25 25 25 25 26 26 26 26 26 26 26 26 25 25 25 24 24 24 24 24 24 24 24 24 24 23 23 23 22
6 6 6 6 6 7 7 7 6 6 7 8 8 7 7 8 8 7 7 7 7 8 7 6 7 7 6 6 6 7 7 7 8 10 9 9 11 10 10 9 8 11 17 21 21 22 22 21 22 21 22 23 23 24 25 25 26 26 26 26 26 26 27 27 26 26 26 26 25 25 25 25 25 25 25 25 24 24 24 24 24 23 23 23 23
6 6 5 6 7 7 7 7 7 6 7 7 7 7 6 7 7 7 7 7 8 8 7 7 7 7 6 6 6 6 6 8 9 9 9 10 10 10 9 8 8 9 10 16 19 21 21 21 21 20 21 21 22 23 24 24 24 24 24 25 25 25 25 26 27 26 26 26 26 26 25 25 25 25 25 26 26 26 25 24 24 23 24 24 24
7 6 7 7 7 7 8 7 6 6 7 7 6 6 6 7 7 7 7 7 7 7 7 7 7 7 7 6 6 6 7 8 9 9 9 10 10 10 9 8 8 9 9 9 11 18 21 20 20 20 20 19 21 22 24 24 25 25 25 25 25 26 26 26 26 26 26 26 26 26 26 26 26 26 26 26 26 26 27 27 26 25 25 25 25
8 7 7 7 7 7 6 7 7 6 7 7 7 7 7 6 7 7 8 8 8 8 7 7 7 7 6 6 6 6 7 8 9 9 8 9 10 10 9 8 9 10 9 9 8 11 21 19 19 20 20 20 20 22 24 25 25 26 26 26 26 26 26 26 26 26 26 26 26 26 26 26 26 26 26 27 26 27 27 27 27 27 27 26 26
8 8 8 7 6 7 7 7 6 6 7 7 7 6 6 5 6 6 7 6 7 7 7 7 7 7 6 5 6 7 7 8 9 8 8 10 10 10 9 8 8 10 8 8 8 7 12 18 18 18 21 19 20 22 24 24 24 26 26 26 26 26 27 27 27 26 26 26 26 25 25 25 25 25 26 26 26 27 28 28 28 27 27 27 27
9 8 7 6 6 7 7 8 7 7 7 7 7 7 6 6 6 6 7 7 7 8 8 8 6 6 6 3 7 7 7 8 8 8 8 9 9 10 8 7 7 9 8 8 8 7 7 10 16 15 22 20 19 21 23 23 23 23 26 26 26 26 26 27 26 26 26 25 25 25 26 26 26 26 26 26 26 26 27 28 28 28 28 28 28
8 7 6 6 7 7 7 8 7 7 7 7 7 7 7 7 5 6 5 7 7 7 7 6 6 5 4 4 8 7 7 7 8 8 8 8 9 8 8 8 6 8 8 8 7 7 7 7 7 8 12 20 16 20 22 24 23 21 24 26 26 27 27 27 27 26 26 25 25 25 25 25 25 25 26 26 26 27 27 27 27 27 28 28 28
8 7 7 7 7 7 7 7 7 7 8 9 8 8 9 8 7 6 6 6 8 8 9 7 6 4 4 4 7 8 8 7 7 8 7 8 7 7 8 7 6 7 7 8 7 7 7 8 6 8 9 12 17 18 20 23 21 21 22 25 26 26 27 27 27 27 26 26 25 25 26 26 26 26 26 25 25 26 26 27 27 27 27 27 28
8 7 7 7 7 7 7 7 6 7 8 8 8 8 8 8 7 5 7 8 10 10 12 6 6 6 6 5 6 7 8 8 7 8 8 7 6 7 7 7 6 6 6 7 7 7 7 8 7 7 9 8 8 14 20 21 19 20 21 23 25 26 26 26 27 26 26 26 25 26 26 26 26 26 26 26 26 26 26 26 26 26 27 27 27
7 8 8 7 7 7 7 7 7 7 8 8 8 8 9 9 8 7 5 7 7 10 11 8 7 5 4 4 3 4 5 10 10 5 7 6 7 7 7 7 6 5 5 7 7 8 6 7 6 6 8 8 7 5 8 10 12 21 20 22 25 26 26 26 26 26 26 25 26 26 26 26 26 26 27 27 26 26 26 26 26 26 26 26 27
9 9 8 8 7 7 7 6 7 6 7 8 9 10 9 9 9 8 6 5 5 6 10 10 5 5 3 0 1 1 1 6 6 6 6 6 5 7 7 8 8 4 6 6 6 8 5 7 7 6 8 8 7 5 8 10 14 21 20 21 25 26 26 26 26 26 26 26 26 26 27 27 27 27 27 27 27 27 27 27 27 27 27 26 26
9 9 8 8 7 7 6 7 7 7 6 7 9 9 9 9 8 9 7 6 6 7 8 9 8 6 4 1 2 1 2 5 7 4 5 6 6 7 7 8 7 4 5 5 6 7 5 6 8 4 7 7 6 5 7 8 15 19 19 19 24 25 26 25 25 25 25 25 26 26 27 27 27 27 27 27 27 28 28 27 27 27 27 27 27
9 9 9 8 8 7 7 7 7 7 7 7 7 8 8 8 8 7 9 6 6 5 6 8 10 8 3 3 5 5 2 4 7 3 7 6 7 7 7 9 9 5 5 5 6 7 6 5 7 4 7 6 5 5 6 6 7 6 10 17 24 25 26 25 24 24 25 25 26 26 26 26 26 26 27 27 27 27 28 28 28 28 28 28 27
9 9 8 8 8 7 7 7 7 7 7 7 7 7 8 9 9 7 8 10 5 6 7 7 8 9 7 5 3 2 2 5 3 5 6 1 6 6 6 8 8 4 6 4 5 6 6 4 6 4 6 7 5 5 6 8 10 8 8 13 26 26 26 25 24 25 26 27 26 26 26 26 27 28 28 27 28 28 28 27 27 27 28 28 29
9 8 8 7 7 7 7 7 7 7 7 7 8 8 7 8 8 8 7 7 7 8 8 7 5 7 7 6 4 2 1 1 2 3 4 4 3 6 5 8 8 5 7 4 5 6 6 4 7 4 6 6 5 5 6 8 13 14 17 22 24 26 26 25 24 25 26 27 27 27 28 28 28 29 29 29 29 29 28 28 27 27 27 28 28
9 8 8 7 7 7 7 7 7 7 7 7 7 7 7 7 8 8 7 7 8 7 6 6 7 6 6 6 7 7 5 4 4 3 3 7 9 5 3 6 6 5 7 5 6 7 6 5 6 4 5 7 5 6 7 9 9 7 7 21 22 24 24 23 23 24 25 25 26 27 27 27 27 28 28 28 28 29 28 28 28 28 28 28 28
8 8 8 7 8 7 7 7 7 7 7 6 6 7 7 6 7 8 8 7 7 6 6 6 5 6 5 6 6 7 6 5 7 6 3 4 6 6 10 7 4 3 6 4 5 5 5 6 4 5 6 7 5 7 7 8 7 5 10 21 22 23 23 23 23 23 23 24 25 27 27 27 28 28 29 29 29 28 28 28 28 29 29 29 30
7 8 8 8 7 6 6 7 7 7 7 7 6 6 6 6 7 7 7 7 6 7 6 6 5 6 6 6 6 6 5 5 4 6 3 2 5 8 8 11 11 8 6 6 7 5 4 6 4 5 6 6 6 6 7 7 7 6 12 21 21 22 22 23 24 24 25 25 26 27 27 27 28 29 30 30 29 28 28 28 28 28 29 30 30
6 6 7 7 7 7 7 7 7 7 6 6 6 5 6 6 7 7 8 8 6 6 7 7 7 7 8 6 6 5 4 4 4 5 3 3 6 6 7 6 8 10 6 8 8 5 7 5 3 5 6 5 5 7 8 8 7 12 20 20 21 22 23 23 24 25 25 26 28 28 28 28 28 30 31 30 29 30 30 29 30 29 28 28 30
5 5 5 6 6 6 7 6 6 6 6 5 6 6 6 6 6 6 6 6 6 6 6 7 8 6 6 6 5 5 5 5 5 5 5 5 5 7 7 7 5 4 7 7 7 4 8 3 4 5 6 5 6 8 8 8 8 18 15 18 20 22 23 24 25 25 26 27 28 28 28 28 28 29 30 30 31 31 31 31 30 31 31 30 30
4 4 5 6 5 5 6 5 5 6 6 6 6 7 5 5 5 6 7 7 6 6 6 6 5 5 5 5 5 5 5 5 5 5 5 5 5 7 6 6 9 8 5 6 3 5 6 3 5 6 6 6 7 8 8 8 7 15 19 13 21 22 24 25 25 25 26 27 28 27 27 27 28 30 31 31 30 30 31 31 31 30 31 31 30
4 4 3 4 4 5 5 6 6 6 7 6 6 6 5 6 6 6 7 6 6 5 5 4 4 4 4 5 5 5 5 5 5 5 5 6 6 6 8 6 6 8 5 3 5 5 3 5 5 5 5 6 7 7 8 8 7 16 21 13 15 22 24 25 25 25 26 27 27 27 27 27 29 30 31 32 32 30 30 31 30 31 30 31 32
3 3 3 3 5 5 6 6 6 6 6 6 5 6 5 6 6 7 6 5 4 5 4 5 5 5 5 5 5 5 5 5 5 5 5 5 5 6 7 10 8 4 6 6 4 4 6 4 3 4 5 5 7 8 7 8 11 18 18 11 10 20 23 24 25 26 27 27 26 27 27 29 30 30 32 33 34 34 32 32 32 33 33 31 32
3 3 4 4 4 5 6 6 6 6 6 6 6 5 5 5 6 6 6 4 4 4 5 5 5 6 5 5 5 5 5 6 5 5 5 5 5 5 5 5 9 12 8 6 4 5 5 5 3 3 5 6 6 7 10 11 9 18 14 9 9 11 20 23 24 25 25 25 25 26 28 29 29 30 32 34 34 35 33 34 32 32 34 35 34
3 3 4 4 5 5 5 5 5 5 5 5 5 5 5 5 5 6 5 5 4 4 5 5 4 5 4 6 5 5 5 6 6 6 5 5 5 5 5 6 6 7 10 11 6 6 5 3 5 4 5 8 8 7 9 8 10 14 10 9 9 8 16 23 24 24 24 24 25 26 28 28 28 29 31 34 35 35 34 34 35 36 35 35 36
3 3 4 5 5 6 4 4 4 4 5 5 5 5 5 5 5 5 4 4 4 4 5 5 5 5 4 5 4 5 4 5 5 5 5 6 5 6 6 5 5 6 7 11 12 6 7 4 4 8 8 8 8 8 7 8 14 16 9 10 10 8 19 22 23 23 24 25 25 26 27 28 28 29 32 33 34 34 36 36 37 38 37 36 37
4 5 5 5 5 4 4 3 4 4 4 4 4 4 5 5 5 5 4 4 4 4 4 4 3 3 3 4 4 3 3 4 5 5 6 5 6 5 6 5 5 5 6 7 12 5 5 10 7 5 9 9 9 9 7 7 12 16 11 9 9 15 21 15 21 22 24 25 25 26 26 27 29 31 32 32 33 34 34 36 37 38 38 38 36
5 5 4 4 3 4 4 3 4 4 4 4 4 4 5 4 4 4 3 4 4 4 3 4 2 3 3 3 3 3 4 5 5 5 4 5 5 5 5 6 6 6 6 7 9 14 7 8 9 8 9 10 9 9 10 9 9 18 10 9 10 15 9 8 16 23 22 23 24 25 26 28 30 30 31 32 33 34 35 36 37 37 37 36 35
5 4 4 4 3 4 3 4 3 3 4 4 4 4 4 3 3 3 4 4 3 3 2 3 3 3 3 3 4 4 4 4 4 4 5 5 4 6 6 6 6 6 7 7 10 14 9 4 8 10 9 10 9 9 11 11 10 9 11 9 8 7 8 9 10 16 21 22 23 25 27 28 29 30 31 32 33 33 34 35 35 36 36 35 34
5 5 4 4 3 3 3 3 3 3 3 4 3 3 3 3 3 2 3 3 2 2 2 2 3 3 3 3 3 3 3 3 3 4 5 5 6 6 6 6 6 6 6 8 9 11 15 9 8 8 8 8 12 9 10 13 12 11 10 9 7 7 9 9 9 9 19 21 24 26 27 27 28 31 33 33 33 33 34 34 35 35 35 33 34
4 4 4 4 4 3 3 4 3 3 3 3 3 3 3 3 3 3 2 1 1 2 3 3 3 3 3 3 3 3 3 3 4 4 4 5 5 5 6 6 5 6 6 7 8 11 14 13 9 10 9 8 9 12 12 10 11 11 11 9 9 9 9 9 9 7 15 22 25 26 28 31 32 33 32 31 31 33 34 36 36 34 33 34 35
5 4 4 4 4 3 4 4 4 3 3 3 3 2 2 2 2 1 2 2 2 3 3 3 3 2 2 2 3 3 3 3 3 4 4 5 5 5 5 5 5 6 6 6 7 9 11 15 11 10 10 11 10 9 10 10 11 10 10 11 11 10 10 9 8 8 13 24 27 29 31 32 31 30 31 31 32 33 34 35 35 36 36 36 36
5 5 4 3 4 4 4 3 3 3 3 3 2 1 1 2 1 1 2 3 3 3 3 2 3 2 2 2 2 3 3 3 3 3 4 5 5 5 5 6 6 6 6 6 7 7 10 13 13 10 10 9 10 10 10 12 11 9 10 12 12 11 10 9 9 10 18 26 26 28 29 29 30 30 31 32 33 32 33 34 36 37 39 39 38
5 4 4 3 3 4 3 3 3 3 3 2 1 1 2 2 2 1 2 2 3 2 2 2 2 3 2 2 3 2 2 2 2 2 3 4 4 4 6 6 6 6 7 7 7 8 9 11 13 15 12 12 11 9 10 10 13 15 14 13 10 8 10 12 11 11 10 11 12 14 18 22 26 32 32 30 32 34 35 36 38 39 39 39 38
6 5 4 4 3 3 4 3 3 3 2 2 2 3 2 2 2 1 1 1 1 1 2 3 3 3 2 2 2 2 2 2 1 2 2 3 4 5 6 6 6 7 8 7 8 10 12 13 13 12 14 12 11 13 11 11 13 12 14 14 13 12 11 13 16 12 11 13 16 24 23 24 30 25 27 33 34 36 37 38 38 38 36 36 36
5 5 5 4 4 3 3 3 3 3 2 3 4 3 2 1 0 1 1 1 1 2 3 3 3 3 3 2 1 1 1 1 1 3 3 3 4 8 8 8 9 10 11 11 11 11 12 12 12 14 12 14 13 11 12 12 13 14 11 10 13 14 15 15 15 16 14 13 14 12 16 18 19 25 29 28 33 37 37 36 35 34 35 35 35
5 5 4 4 4 4 4 4 3 3 2 4 3 2 1 1 1 1 1 2 2 2 3 3 3 3 2 1 1 2 3 7 9 8 7 8 5 5 5 5 9 10 10 10 11 11 12 12 13 12 13 14 13 14 16 15 16 17 14 13 14 15 14 18 19 14 13 16 14 13 14 15 19 19 17 16 19 30 27 31 27 31 31 32 33
5 5 4 4 4 5 5 4 3 3 3 3 4 5 3 2 1 2 2 3 2 3 3 3 3 2 1 2 2 7 8 8 8 9 10 11 11 9 7 6 8 10 11 11 11 11 12 13 13 13 15 15 14 15 15 16 16 14 15 15 14 15 20 17 15 15 14 14 16 17 15 15 18 21 18 16 16 21 17 15 14 22 30 35 36
6 5 5 5 5 4 4 4 4 4 3 3 7 5 3 2 2 2 3 3 3 3 3 3 2 1 2 2 2 3 5 6 5 9 11 11 12 14 15 15 13 11 11 12 12 12 12 12 13 13 13 16 16 15 15 15 12 15 14 14 17 17 13 16 24 20 12 15 18 22 20 16 18 20 19 15 16 16 16 15 29 34 36 36 36
6 6 6 5 5 4 4 3 3 4 4 7 7 5 4 4 3 3 3 4 3 3 3 2 1 2 2 2 2 2 2 4 3 3 6 11 14 15 15 15 15 15 15 12 13 12 13 13 14 13 14 14 16 15 12 13 15 15 16 17 17 17 20 21 18 16 15 20 17 19 22 18 15 17 18 15 15 15 17 27 36 36 36 36 34
6 7 6 6 5 4 4 4 4 3 4 7 7 6 5 5 5 4 4 4 3 3 3 2 2 2 2 2 2 3 3 7 5 3 4 5 10 14 15 15 14 15 15 16 16 13 12 12 13 14 13 14 14 12 14 16 18 19 19 19 17 17 17 20 20 20 22 17 18 17 17 18 16 18 19 17 17 16 19 24 33 34 35 35 37
7 7 6 6 5 5 5 5 4 4 4 8 7 6 6 6 5 5 4 3 3 3 3 3 3 2 2 2 2 3 2 3 4 5 4 6 9 10 10 9 9 11 13 14 16 19 16 12 13 14 14 13 14 15 18 20 20 19 19 20 19 20 22 20 20 21 18 15 17 18 19 18 16 17 19 18 18 19 18 28 36 36 37 37 38
8 8 8 7 6 6 5 5 3 3 5 10 8 7 6 6 6 5 3 3 3 3 4 3 1 1 1 2 2 1 2 3 5 7 8 9 10 9 10 10 8 8 9 9 10 11 11 11 13 14 16 14 15 19 19 17 18 17 16 18 20 19 15 17 18 16 17 15 17 17 18 18 16 18 19 19 19 19 18 26 33 35 36 37 37
6 6 6 6 6 6 5 5 4 4 4 12 9 8 7 6 6 3 2 3 3 3 2 1 1 1 1 1 1 2 3 2 6 11 11 10 10 9 7 8 8 8 8 10 16 16 15 14 13 14 14 19 24 21 20 18 16 16 17 15 13 13 14 14 15 15 15 14 15 16 17 18 16 18 18 19 19 20 19 19 28 34 34 35 37
8 8 7 7 6 7 6 6 5 4 4 10 11 10 8 7 5 1 2 2 3 2 1 1 1 1 0 1 2 2 2 4 8 11 13 15 7 5 6 7 7 8 9 9 13 18 18 18 19 23 27 26 24 26 25 26 19 18 13 11 11 12 12 13 13 15 16 15 13 14 15 17 16 18 19 19 19 20 20 19 17 26 32 34 34
9 8 7 7 7 7 7 6 6 5 4 10 13 10 9 8 5 2 3 2 2 2 2 1 1 1 2 5 5 3 4 5 9 12 14 10 6 5 5 7 8 9 10 10 10 9 13 15 19 20 19 20 21 22 21 21 22 18 12 10 12 12 11 11 14 15 17 16 13 12 15 15 18 17 17 18 19 15 16 16 18 20 27 28 33
8 7 7 7 7 6 6 6 8 7 4 8 13 11 10 8 5 3 3 2 2 3 1 1 1 0 2 3 6 6 5 7 11 12 12 10 8 6 6 7 9 10 10 13 10 9 9 9 9 9 9 12 12 11 12 20 20 17 11 12 12 11 11 12 12 13 14 15 13 15 16 15 17 18 16 16 17 17 12 13 11 12 13 12 17
Wind_Direction
52 43 39 32 24 32 35 37 35 19 5 12 11 14 21 14 360 4 7 13 14 11 358 358 15 27 24 358 349 5 28 46 34 51 86 86 78 67 60 50 47 45 38 36 34 32 31 30 29 31 35 38 38 37 35 34 31 28 30 31 31 32 31 29 27 26 23 21 21 22 21 19 18 16 15 15 15 15 15 14 13 8 2 354 345
46 39 43 39 34 26 27 27 32 22 13 13 5 17 15 10 2 12 6 4 14 5 1 351 11 18 12 3 354 7 29 53 32 43 97 88 83 68 49 44 43 43 39 37 34 30 30 31 30 32 40 39 37 38 34 33 31 29 28 28 26 25 25 23 22 21 19 16 15 16 16 16 15 13 11 9 8 7 8 10 12 10 8 6 3
47 42 42 39 37 36 31 25 30 24 12 5 2 18 20 10 1 12 7 9 13 6 355 358 13 8 356 8 356 17 42 41 27 20 56 69 69 57 39 36 31 37 38 35 33 29 30 32 31 34 41 39 37 36 34 32 31 29 27 26 25 23 23 21 20 18 15 13 11 9 9 9 10 9 8 6 4 2 1 1 3 3 3 4 4
49 50 42 44 42 38 32 30 28 23 12 5 17 15 25 11 6 12 14 18 9 9 355 10 10 1 356 2 10 41 44 37 25 34 53 46 52 47 39 29 22 21 34 31 30 28 27 32 30 31 43 39 37 35 33 32 30 28 25 24 24 22 21 19 18 17 14 12 10 8 6 4 4 3 3 2 0 359 357 357 357 357 357 356 357
39 43 52 49 46 41 35 30 26 23 17 12 25 15 22 21 12 9 13 12 13 9 2 9 10 358 355 354 24 46 45 37 34 49 44 48 50 42 38 28 16 13 28 29 25 26 25 30 31 32 40 41 37 35 33 31 29 27 24 22 21 20 18 17 16 14 12 10 8 7 6 5 4 2 360 358 357 356 355 355 354 354 353 352 351
38 40 46 50 48 44 37 27 22 24 24 20 26 17 22 28 13 13 16 16 13 7 5 7 358 353 351 353 29 50 46 42 50 55 47 50 52 41 34 24 18 23 27 23 17 21 22 26 34 34 38 38 38 35 32 30 28 26 24 23 21 20 18 16 15 13 11 9 8 6 3 2 2 0 359 357 356 354 352 351 351 351 350 349 348
33 40 43 48 49 44 36 28 17 24 33 27 25 21 25 29 15 22 16 17 13 9 8 1 353 348 340 351 29 52 47 50 60 58 48 53 52 42 31 22 20 29 28 20 10 14 19 23 32 38 36 36 35 33 29 27 26 24 23 22 21 20 17 15 15 13 11 10 8 7 5 2 1 359 357 356 354 353 351 349 348 347 347 347 346
42 39 47 45 50 46 38 30 24 27 36 31 28 27 18 28 19 25 21 14 9 9 5 357 348 337 334 353 46 54 55 55 62 59 52 56 52 40 28 20 24 32 28 18 13 9 12 17 25 35 39 37 34 31 29 26 24 23 22 21 19 18 16 14 13 12 11 9 7 6 5 3 1 359 358 356 354 352 350 348 347 346 345 343 342
43 45 48 44 43 46 36 35 27 32 37 35 33 21 16 24 21 30 42 15 13 6 0 355 341 326 321 5 62 54 56 61 62 64 56 60 53 40 27 19 24 36 28 17 13 10 3 5 9 26 39 42 39 35 31 26 23 22 21 20 17 16 14 13 12 11 9 7 6 5 4 3 1 359 358 357 355 353 350 348 346 345 344 342 340
38 46 51 47 45 45 41 35 34 34 38 39 35 20 16 17 30 22 44 30 18 9 357 344 329 319 318 36 71 60 60 64 67 66 61 62 61 44 25 18 22 39 25 16 12 4 3 356 1 19 28 27 36 36 34 27 20 21 20 17 16 15 13 11 10 9 8 6 4 3 1 359 358 356 355 355 354 352 349 348 347 345 343 342 340
38 43 54 48 46 43 43 38 36 36 39 42 36 23 19 11 31 25 37 46 24 9 356 331 318 318 330 44 87 69 70 69 71 75 66 66 68 58 28 19 21 42 22 18 8 3 359 1 4 33 23 15 21 36 33 23 15 19 18 14 12 12 10 9 8 7 6 4 3 2 1 359 357 355 353 352 350 349 348 347 346 344 343 342 341
31 40 50 51 49 42 42 40 42 39 40 39 32 24 17 12 5 32 27 32 29 12 4 345 326 335 340 39 92 91 73 76 78 79 74 69 72 61 41 15 21 43 27 20 6 360 0 4 9 35 26 9 9 40 31 23 17 16 17 12 9 9 7 6 6 5 4 2 2 0 358 357 355 353 352 350 349 348 346 345 344 343 342 341 339
34 35 46 48 50 45 41 37 41 44 42 41 32 27 21 19 8 6 37 30 23 11 8 346 5 1 357 56 89 79 81 67 63 75 76 76 75 65 46 29 15 40 31 20 7 357 360 8 6 34 25 7 357 37 34 24 15 15 14 10 7 6 5 3 1 2 1 0 359 357 356 354 353 352 350 348 347 346 345 344 342 341 339 338 337
42 40 42 44 45 43 41 36 33 44 47 41 38 33 26 26 19 10 23 51 43 18 9 8 26 12 337 336 77 86 93 67 44 41 76 78 79 71 52 36 18 35 34 27 6 356 0 6 3 34 31 360 359 24 36 20 9 10 11 7 4 3 1 359 358 359 358 357 356 355 353 351 350 350 348 347 345 344 344 343 341 339 338 337 336
44 45 44 37 39 42 41 35 37 37 45 41 34 33 26 23 23 26 0 39 62 36 27 35 16 315 254 267 17 22 313 26 21 11 57 63 78 68 56 40 12 26 35 35 11 357 359 4 0 28 33 2 355 28 37 21 11 9 6 5 2 360 358 356 355 355 355 353 353 352 351 351 349 347 346 345 344 343 342 341 341 339 337 336 335
43 44 45 40 35 40 41 39 37 35 41 49 40 35 26 22 23 27 18 23 32 26 39 29 28 14 23 9 279 48 352 8 351 311 32 52 55 67 50 36 10 10 37 32 19 358 351 1 355 20 32 4 354 30 33 23 11 6 1 359 359 357 355 352 350 352 351 351 351 350 349 348 346 345 344 343 342 342 341 340 339 338 337 336 335
44 45 46 38 36 36 39 40 43 38 39 45 46 39 29 25 21 26 27 28 30 24 20 35 32 31 48 21 5 33 42 318 329 286 22 14 28 58 46 36 7 3 31 23 21 356 343 357 349 7 30 5 355 31 36 22 10 357 351 355 356 354 352 349 348 349 348 348 349 349 348 346 344 342 341 340 340 339 338 337 337 337 336 335 334
41 42 42 40 36 36 37 43 46 45 42 43 46 42 33 31 19 22 27 22 35 40 28 15 32 23 33 67 109 129 335 308 19 321 353 293 42 17 39 35 2 358 18 20 23 352 335 353 343 0 27 5 356 25 34 18 8 356 350 353 353 352 349 348 347 348 347 347 347 347 346 344 342 341 340 339 338 337 335 334 335 335 335 334 333
39 38 40 42 39 38 41 44 47 49 46 45 44 40 36 33 22 22 33 29 26 44 37 16 8 18 12 18 35 55 114 52 3 290 331 324 34 358 13 17 358 359 5 7 12 351 331 351 340 7 23 7 358 28 31 18 6 353 353 354 351 349 347 346 347 345 345 346 346 345 343 342 341 340 339 337 336 336 334 333 333 333 333 332 330
42 36 34 39 45 41 40 43 47 46 46 44 45 43 40 38 34 26 30 37 37 41 29 22 43 1 0 15 14 9 8 54 48 46 312 317 322 347 43 4 355 349 352 342 3 343 328 345 342 15 21 3 7 29 22 12 359 344 350 352 349 347 345 345 344 342 341 342 342 340 339 338 337 336 335 336 334 332 333 332 332 332 331 329 328
40 40 30 34 43 40 38 43 47 47 42 36 40 45 45 43 40 35 30 30 40 41 38 21 27 21 6 13 18 13 8 29 34 19 9 318 299 344 329 341 338 343 340 338 346 326 323 337 350 19 23 3 16 23 15 5 346 338 352 347 346 344 341 340 339 337 337 338 337 336 335 334 335 334 333 334 333 331 330 330 330 330 330 329 328
41 33 37 36 35 37 41 42 42 46 43 34 30 39 40 38 43 45 36 34 31 41 38 22 24 16 23 21 22 13 6 16 23 7 338 315 328 322 331 333 338 340 331 343 330 314 335 338 14 19 14 12 16 16 6 354 342 348 346 344 342 340 338 338 337 335 336 336 336 335 334 333 333 333 333 333 332 331 328 328 329 330 330 329 328
47 41 34 33 35 40 43 46 44 44 43 36 28 25 42 40 36 41 42 35 28 45 33 30 24 20 15 21 17 22 17 34 356 0 359 332 325 315 321 326 327 322 335 331 319 325 342 347 29 23 12 22 13 6 0 348 347 347 344 341 340 338 337 336 334 334 334 335 334 334 332 332 332 333 333 331 331 332 332 331 329 327 327 327 327
58 52 31 33 41 40 39 43 46 41 38 38 29 20 41 44 37 45 46 35 26 43 35 33 25 16 13 9 7 1 23 39 6 360 357 333 333 313 319 324 308 305 316 319 303 4 333 351 15 23 26 21 11 7 351 342 341 343 340 338 338 337 335 334 333 333 333 332 332 332 331 331 332 332 331 332 331 330 328 330 328 330 332 329 325
71 66 49 41 44 47 47 43 42 40 40 38 32 24 32 55 44 45 48 34 23 31 44 33 29 20 12 358 360 357 25 28 14 3 342 347 335 322 316 326 314 316 321 319 324 350 298 38 18 19 34 20 7 360 344 336 338 339 337 334 337 336 334 334 333 332 331 329 329 328 329 331 331 331 331 329 327 326 326 328 329 326 325 326 327
88 74 58 65 58 54 53 51 45 46 40 37 40 25 29 54 44 46 46 29 17 23 50 38 24 17 29 13 353 352 22 25 11 3 358 355 341 336 324 323 310 306 308 322 325 323 303 17 15 20 33 19 2 352 336 332 336 335 333 335 336 335 334 332 330 328 327 326 326 327 328 330 330 329 329 328 325 325 325 328 328 328 327 324 325
93 85 66 66 65 64 59 50 50 50 46 41 34 24 27 47 46 40 43 27 7 34 42 37 19 26 30 10 354 358 23 21 17 355 3 344 341 333 334 325 317 297 312 321 311 309 308 326 11 13 20 15 355 342 333 331 331 331 333 337 331 331 329 327 325 325 324 325 324 325 328 329 329 328 328 327 326 325 325 325 328 329 328 327 326
108 101 78 60 63 69 62 55 51 50 49 44 38 25 26 51 45 49 33 11 3 42 46 32 20 28 23 10 8 358 17 19 4 351 341 336 333 330 332 337 331 323 325 306 321 293 323 315 335 30 17 353 349 333 335 334 324 329 335 331 327 324 324 322 322 323 323 323 324 327 328 327 327 326 325 325 323 322 325 326 327 328 328 328 326
117 96 88 70 67 67 67 61 55 53 49 46 37 28 29 38 50 57 35 5 6 38 52 34 16 28 12 15 3 1 6 15 353 336 331 341 335 338 350 345 333 321 323 318 320 322 317 15 340 338 5 346 336 339 331 327 327 329 328 325 321 315 317 320 323 322 322 323 325 326 326 324 324 323 323 322 320 319 323 325 326 325 325 326 327
116 101 80 76 66 69 68 68 61 55 55 47 41 27 39 34 49 56 37 11 16 25 49 37 12 27 2 12 358 10 0 9 338 333 355 350 351 353 347 336 340 332 319 315 306 317 305 328 351 320 337 337 330 329 327 319 325 326 319 316 311 306 315 321 322 322 323 323 323 324 323 322 321 321 319 318 317 320 321 325 326 325 323 325 327
93 84 79 75 78 76 74 71 65 62 54 54 43 35 50 43 43 39 21 16 17 27 32 40 6 26 359 9 345 8 357 5 346 353 352 348 346 346 332 343 344 334 320 308 304 303 356 314 323 325 321 325 327 320 319 322 319 319 315 305 303 310 318 319 322 323 321 320 322 323 322 321 320 318 316 315 316 317 317 319 322 322 322 322 322
88 91 96 92 94 93 84 77 74 68 62 50 46 41 50 44 47 34 9 27 18 20 26 354 29 18 11 0 344 17 16 10 352 346 334 335 334 341 352 352 342 333 324 308 294 295 324 308 309 318 319 319 321 320 319 314 309 311 302 301 298 308 311 313 318 319 318 320 320 322 321 320 318 317 315 315 315 314 315 317 318 318 317 317 315
109 101 100 104 98 97 92 87 79 73 68 53 50 44 47 42 22 54 20 25 20 348 42 347 28 17 11 7 356 24 13 6 329 330 337 334 355 4 356 344 332 326 317 311 303 301 300 310 311 313 319 316 318 324 314 312 309 303 302 298 296 303 312 313 310 314 319 321 321 321 320 320 319 318 316 315 313 313 314 314 313 313 313 312 311
109 114 103 104 100 98 101 88 81 76 68 65 54 52 49 33 18 41 38 14 4 355 4 19 30 13 7 15 342 25 340 3 332 354 347 6 3 359 338 335 324 319 323 315 305 305 305 316 308 307 308 325 312 319 314 313 311 309 306 307 308 309 310 308 310 313 320 321 319 318 318 317 316 313 312 311 310 311 312 311 310 309 309 310 311
102 108 115 105 107 105 99 97 88 78 73 62 51 66 34 50 31 21 20 357 8 16 24 22 26 7 360 353 334 13 336 6 349 359 4 10 0 345 335 324 320 317 314 314 311 306 308 309 317 315 319 319 316 315 312 306 304 306 310 314 316 313 308 311 311 310 321 320 317 317 316 313 311 310 309 310 310 310 310 310 309 309 309 310 310
123 113 116 121 112 107 101 97 92 78 67 72 66 71 68 67 48 25 352 14 22 29 30 14 4 350 322 349 331 2 348 5 346 12 0 14 353 337 321 318 316 315 314 313 309 305 309 309 319 319 319 317 310 304 304 300 304 311 314 313 310 307 309 312 319 323 321 318 316 314 312 309 308 308 311 310 309 308 308 308 309 311 309 307 307
134 128 116 117 111 106 103 102 92 84 91 92 79 73 85 80 74 32 12 19 19 23 15 335 329 320 303 340 333 347 354 6 346 14 9 4 339 325 321 316 314 311 311 309 307 308 308 308 309 312 313 304 304 306 307 312 315 316 314 312 313 314 318 323 325 320 316 314 314 312 309 307 308 308 309 311 310 309 308 309 308 309 307 304 303
127 128 132 118 119 117 112 106 104 112 106 115 161 138 108 79 61 27 18 14 14 4 318 317 294 297 322 328 335 338 354 12 345 6 3 340 320 314 312 309 313 314 313 312 309 308 305 304 312 314 317 317 311 309 318 324 326 322 318 311 312 325 328 318 311 313 313 315 314 309 307 308 307 308 310 312 311 309 309 307 306 305 304 302 301
135 135 129 132 124 122 119 116 128 135 153 153 119 75 59 47 52 28 356 24 322 311 281 279 291 295 307 311 318 343 0 345 4 332 318 307 308 312 312 312 313 314 314 313 316 315 317 314 312 312 312 314 316 317 327 330 318 313 315 323 322 323 315 311 309 308 310 307 303 305 306 306 306 308 310 310 309 306 305 303 302 302 301 299 298
135 135 140 137 140 132 139 141 154 154 165 127 92 68 48 73 31 343 344 294 291 279 273 279 277 277 270 266 273 312 298 278 291 280 276 272 295 321 321 321 320 320 321 321 320 320 317 315 314 314 314 316 320 319 319 320 318 320 327 327 316 319 317 310 307 313 317 310 309 311 307 306 307 307 306 307 305 301 300 301 300 299 297 298 298
136 136 136 139 140 150 158 161 153 146 131 112 98 98 131 163 193 240 265 273 263 268 278 280 278 275 299 315 302 264 294 314 319 317 317 327 322 314 308 314 326 325 322 321 319 318 316 314 314 314 317 319 321 323 323 325 326 323 329 331 314 310 311 310 309 312 310 312 311 305 307 315 310 307 306 305 302 301 298 299 299 298 297 295 297
141 141 140 155 163 170 169 166 154 139 138 110 143 158 172 173 230 241 252 261 266 268 270 277 283 284 303 307 307 317 325 326 324 325 326 326 326 327 328 339 336 329 323 321 318 319 317 316 317 322 319 318 321 322 321 320 321 330 328 324 315 316 313 306 298 299 314 315 315 311 311 314 308 303 304 305 302 299 299 300 297 299 299 300 298
151 151 159 166 176 176 163 159 158 159 138 135 163 177 181 200 200 240 253 267 267 260 260 262 265 290 308 307 297 322 324 314 314 325 330 332 338 338 335 331 328 326 322 320 317 317 319 318 320 318 316 314 317 322 321 327 337 330 326 323 317 318 315 313 310 313 327 329 315 310 309 310 305 301 305 307 303 299 304 305 306 305 304 302 299
159 160 166 175 175 169 156 151 158 167 148 162 168 173 197 210 217 233 254 254 258 262 263 273 300 316 297 306 321 313 308 311 326 349 345 350 340 331 328 326 324 323 319 316 319 323 324 319 315 315 316 316 320 327 337 338 329 326 323 320 317 315 314 312 308 306 314 320 313 312 306 312 310 302 304 309 306 305 305 308 308 306 302 300 302
160 168 176 167 172 161 159 169 177 178 146 169 168 183 203 209 222 233 240 246 260 264 277 280 274 275 291 310 312 319 314 334 343 2 355 341 327 326 324 323 323 323 323 323 322 318 315 312 313 315 320 324 327 333 335 329 327 320 320 314 314 314 311 304 306 307 314 326 313 307 307 312 310 306 307 311 310 310 309 306 303 303 304 307 309
170 169 170 170 168 172 170 177 174 167 151 175 177 193 204 213 225 234 238 247 261 263 258 264 260 264 298 304 307 312 319 0 2 343 327 319 324 323 325 328 325 322 327 330 327 321 317 314 316 316 324 335 326 327 326 324 321 317 316 313 316 311 309 307 309 307 311 322 314 311 305 307 311 310 308 310 309 305 305 304 305 305 306 307 308
173 173 173 173 174 171 168 166 167 168 161 178 184 194 206 219 228 236 236 249 240 247 252 251 249 269 316 311 301 313 0 10 342 323 325 324 323 324 322 325 341 354 350 338 323 315 316 320 320 319 320 325 323 320 320 319 318 317 315 311 311 311 310 307 305 306 308 315 315 314 304 310 316 310 307 306 306 305 304 303 303 304 306 306 307
168 163 173 167 173 169 162 162 166 184 179 187 186 196 212 219 225 221 227 230 244 252 262 264 275 310 275 279 29 17 351 336 317 324 325 328 324 330 357 3 350 336 328 320 318 318 318 317 318 321 326 322 320 319 322 324 322 317 312 312 316 314 314 312 309 314 310 316 320 315 309 308 316 309 309 307 306 302 303 300 302 303 305 307 309
170 178 180 173 170 162 162 163 169 187 191 191 190 199 210 213 215 231 231 236 241 240 265 257 269 288 334 29 10 347 309 305 317 322 328 331 352 17 359 350 342 328 318 316 318 317 316 323 328 325 322 323 324 325 324 323 319 321 323 323 318 321 316 313 311 316 314 318 318 317 311 310 316 314 309 305 305 302 300 300 303 307 307 309 311
177 180 172 162 161 158 163 168 172 190 184 191 191 199 202 209 195 193 243 214 258 244 245 281 54 15 347 324 311 298 308 312 320 329 329 342 9 9 17 349 334 325 316 320 319 326 347 346 335 332 329 325 325 322 320 318 322 330 330 320 320 320 316 317 314 316 314 310 310 331 317 312 315 311 308 306 302 295 298 301 305 305 308 307 305
174 168 166 163 157 156 160 164 177 184 186 188 193 198 200 204 196 185 213 235 223 253 220 311 309 159 294 291 298 303 312 320 327 328 334 352 352 9 12 348 331 322 319 323 338 355 347 345 339 333 324 326 321 316 315 323 327 331 326 322 324 325 320 316 315 317 313 307 312 331 316 313 316 309 315 314 305 297 292 299 302 299 292 297 306